Regional Weather Roundup
Issued by NWS Cleveland, OH

Home | Current Version | Previous Version | Text Only | Print | Product List | Glossary Off
Versions: 1 2 3 4 5 6 7 8 9 10 11 12 13 14 15 16 17 18 19 20 21 22 23 24 25 26 27 28 29 30 31 32 33 34 35 36 37 38 39 40 41 42 43 44 45 46 47 48 49 50

271
ASUS41 KCLE 241200
RWRCLE
OHIO REGIONAL WEATHER ROUNDUP
NATIONAL WEATHER SERVICE WILMINGTON, OH
800 AM EDT MON APR 24 2017

NOTE: "FAIR" INDICATES FEW OR NO CLOUDS BELOW 12,000 FEET WITH NO
SIGNIFICANT WEATHER AND/OR OBSTRUCTIONS TO VISIBILITY.

OHZ001>008-015>018-024>027-034-035-043-044-241300-
   NORTHWEST OHIO

CITY           SKY/WX    TMP DP  RH WIND       PRES   REMARKS
DEFIANCE       FAIR      44  38  79 NE7       30.04S
FINDLAY        FAIR      48  36  63 NE12      30.02R
TOLEDO EXPRESS FAIR      44  41  89 NE7       30.05S
TOLEDO EXEC    FAIR      48  45  89 NE9       30.06R
LIMA           FAIR      47  30  51 NE6       30.00R
$$

OHZ009>014-019>023-028>033-038-089-241300-
   NORTHEAST OHIO

CITY           SKY/WX    TMP DP  RH WIND       PRES   REMARKS
CLE-HOPKINS    FAIR      50  38  63 NE9       30.07R
CLE-LAKEFRONT  FAIR      50  35  56 NE5       30.04R
CUY CO. ARPT   SUNNY     50  30  46 SE7       30.06R
LORAIN-ELYRIA  FAIR      45  38  76 NE5       30.04S
ASHTABULA      FAIR      47  29  49 NE6       30.09R
AKRON-CANTON   FAIR      51  33  50 E10       30.03S
WOOSTER        NOT AVBL
MANSFIELD      FAIR      51  32  48 E9        30.01S
YOUNGSTOWN     FAIR      48  34  58 E6        30.06R
$$

OHZ042-051>053-060>062-070>072-077>081-241300-
  SOUTHWEST OHIO

CITY           SKY/WX    TMP DP  RH WIND       PRES   REMARKS
CINC-COVINGTON FAIR      51  38  60 NE10      29.93R
CINC-LUNKEN    FAIR      48  43  82 E3        29.94S
HAMILTON       FAIR      49  40  71 VRB3      29.96R
DAYTON         NOT AVBL
WRIGHT-PAT AFB FAIR      49  37  63 NE8       29.97R
DAYTON GENERAL FAIR      49  38  65 NE9       29.94S
WILMINGTON     FAIR      48  39  71 E7        29.95R
$$

OHZ036-037-039>041-045>050-054>059-063>069-073>076-082>088-241300-
  CENTRAL AND SOUTHEAST OHIO

CITY           SKY/WX    TMP DP  RH WIND       PRES   REMARKS
COLUMBUS       FAIR      52  37  56 NE8       29.97S
OSU AIRPORT    FAIR      50  38  63 NE7       29.98R
BOLTON FIELD   NOT AVBL
RICKENBACK AFB NOT AVBL
NEWARK         FAIR      51  36  56 NE7       29.98R
MARION         FAIR      47  34  60 NE6       30.01R
LANCASTER      FAIR      51  40  65 N5        29.97R
ZANESVILLE     FAIR      51  36  56 N7        29.98S
NEW PHILLY     FAIR      51  38  60 NE6       30.02S
$$




USA.gov is the U.S. government's official web portal to all federal, state and local government web resources and services.